This demonstration page uses our WeatherBlox Daily Observations layout. Learn more.

38.80484, -77.04692

Hourly Observations for November 6, 2019

Temp ( °F °C ) Dew Point ( °F °C ) Humidity (%) Winds ( mph kmh ) Pressure ( in mb ) Visibility ( mi km ) Precip ( " mm )
12:52 am 00:52 Clear 50 10 40 4.4 68 68 N 8 13 30.29 1026 10 16.0934 0 0
1:52 am 01:52 Clear 49 9.4 40 4.4 71 71 N 10 17 30.3 1026 10 16.0934 0 0
2:52 am 02:52 Clear 48 8.9 39 3.9 71 71 N 7 11 30.32 1027 10 16.0934 0 0
3:52 am 03:52 Clear 46 7.8 38 3.3 73 73 NNW 8 13 30.35 1028 10 16.0934 0 0
4:52 am 04:52 Clear 46 7.8 36 2.2 68 68 NNW 14 22 30.37 1029 10 16.0934 0 0
5:52 am 05:52 Clear 45 7.2 34 1.1 66 66 NNW 8 13 30.4 1029 10 16.0934 0 0
6:52 am 06:52 Mostly Sunny 45 7.2 33 0.6 63 63 NNW 7 11 30.42 1030 10 16.0934 0 0
7:52 am 07:52 Mostly Sunny 50 10 34 1.1 54 54 VRB 3 6 30.45 1031 10 16.0934 0 0
8:52 am 08:52 Mostly Sunny 52 11.1 34 1.1 50 50 N 8 13 30.47 1032 10 16.0934 0 0
9:52 am 09:52 Sunny 53 11.7 33 0.6 47 47 N 8 13 30.48 1032 10 16.0934 0 0
10:52 am 10:52 Sunny 56 13.3 33 0.6 42 42 VRB 3 6 30.48 1032 10 16.0934 0 0
11:52 am 11:52 Sunny 57 13.9 31 -0.6 37 37 NNW 6 9 30.45 1031 10 16.0934 0 0
12:52 pm 12:52 Sunny 58 14.4 30 -1.1 35 35 Calm 30.42 1030 10 16.0934 0 0
1:52 pm 13:52 Sunny 59 15 32 0 36 36 S 3 6 30.41 1030 10 16.0934 0 0
2:52 pm 14:52 Sunny 59 15 31 -0.6 35 35 Calm 30.39 1029 10 16.0934 0 0
3:52 pm 15:52 Sunny 58 14.4 35 1.7 42 42 S 8 13 30.39 1029 10 16.0934 0 0
4:52 pm 16:52 Sunny 55 12.8 36 2.2 49 49 S 7 11 30.39 1029 10 16.0934 0 0
5:52 pm 17:52 Clear 55 12.8 42 5.6 62 62 S 3 6 30.39 1029 10 16.0934 0 0
6:52 pm 18:52 Clear 52 11.1 39 3.9 61 61 SSE 5 7 30.39 1029 10 16.0934 0 0
7:52 pm 19:52 Clear 51 10.6 38 3.3 61 61 S 7 11 30.39 1029 10 16.0934 0 0
8:52 pm 20:52 Clear 50 10 37 2.8 61 61 S 10 17 30.38 1029 10 16.0934 0 0
9:52 pm 21:52 Mostly Cloudy 49 9.4 39 3.9 69 69 S 10 17 30.39 1029 10 16.0934 0 0
10:52 pm 22:52 Mostly Cloudy 47 8.3 39 3.9 74 74 S 7 11 30.37 1028 10 16.0934 0 0
11:52 pm 23:52 Partly Cloudy 46 7.8 39 3.9 77 77 SSW 5 7 30.36 1028 10 16.0934 0 0

Powered by AerisWeather